This is the latest recevied weather packets stored in our database for station/object G0TQM-11. If no packets are shown the sender has not sent any weather packets the latest 10 day(s).
| Time | Temp. | Humidity | Pressure | Rain* | Wind** | Luminosity | Snow |
|---|---|---|---|---|---|---|---|
| 1777825500 | 16.67° C | 49% | 1007.3 hPa | - | - | - | - |
| 1777824300 | 16.67° C | 51% | 1007.5 hPa | - | - | - | - |
| 1777823100 | 17.22° C | 50% | 1007.4 hPa | - | - | - | - |
| 1777821900 | 17.22° C | 49% | 1007.4 hPa | - | - | - | - |
| 1777820709 | 16.67° C | 50% | 1007.4 hPa | - | - | - | - |
| 1777819499 | 16.67° C | 50% | 1007.5 hPa | - | - | - | - |
| 1777818298 | 16.67° C | 51% | 1007.5 hPa | - | - | - | - |
| 1777817099 | 16.11° C | 52% | 1007.5 hPa | - | - | - | - |
| 1777815898 | 16.11° C | 52% | 1007.5 hPa | - | - | - | - |
| 1777814698 | 16.67° C | 51% | 1007.5 hPa | - | - | - | - |
| 1777813498 | 16.67° C | 52% | 1007.4 hPa | - | - | - | - |
| 1777812297 | 16.67° C | 51% | 1007.3 hPa | - | - | - | - |
| 1777811097 | 17.22° C | 49% | 1007.2 hPa | - | - | - | - |
| 1777809897 | 16.11° C | 51% | 1007.2 hPa | - | - | - | - |
| 1777808697 | 15.56° C | 53% | 1007.2 hPa | - | - | - | - |
| 1777807497 | 15° C | 52% | 1007.1 hPa | - | - | - | - |
| 1777806297 | 15° C | 53% | 1007.1 hPa | - | - | - | - |
| 1777805096 | 14.44° C | 54% | 1007.2 hPa | - | - | - | - |
| 1777803913 | 14.44° C | 55% | 1007.1 hPa | - | - | - | - |
| 1777802713 | 14.44° C | 55% | 1007.1 hPa | - | - | - | - |
| 1777801513 | 13.89° C | 55% | 1007 hPa | - | - | - | - |
| 1777800313 | 12.78° C | 57% | 1007.1 hPa | - | - | - | - |
| 1777799113 | 12.78° C | 60% | 1007.1 hPa | - | - | - | - |
| 1777797907 | 12.78° C | 58% | 1007.1 hPa | - | - | - | - |
| 1777796707 | 13.33° C | 59% | 1007.1 hPa | - | - | - | - |
* Rain since midnight (hover to see other rain measurements)
** Current wind speed in m/s (hover to see current wind gust speed)